K42C Weather Reports


Display with metric or nautical units.
time (UTC)temp
F
wind
direction
speed
MPH
gust
MPH
rain 1hr
in
rain 24hr
in
rain mn
in
humidity
%
barometer
mb
20260506230705 51 245 5.0 0.0 0.00 0.00 0.00 51 975.0
20260506230024 51 238 1.0 0.0 0.00 0.00 0.00 51 975.0
20260506225347 52 250 3.0 4.0 0.00 0.00 0.00 50 975.0
20260506224706 52 256 2.0 0.0 0.00 0.00 0.00 50 975.0
20260506224029 52 212 0.0 0.0 0.00 0.00 0.00 50 975.0
20260506223348 52 250 4.0 0.0 0.00 0.00 0.00 49 974.9
20260506222710 52 335 7.0 3.0 0.00 0.00 0.00 48 974.9
20260506222029 52 283 4.0 0.0 0.00 0.00 0.00 49 974.9
20260506221352 52 276 2.0 3.0 0.00 0.00 0.00 49 974.9
20260506220711 52 278 0.0 6.0 0.00 0.00 0.00 48 974.8
20260506220034 52 288 4.0 5.0 0.00 0.00 0.00 49 974.7
20260506215353 53 217 2.0 0.0 0.00 0.00 0.00 47 974.8
20260506214715 53 294 3.0 11.0 0.00 0.00 0.00 47 974.8
20260506214034 53 236 3.0 6.0 0.00 0.00 0.00 48 974.8
20260506213357 53 229 1.0 0.0 0.00 0.00 0.00 48 974.6
20260506212716 53 235 0.0 0.0 0.00 0.00 0.00 47 974.7
20260506212039 53 269 6.0 3.0 0.00 0.00 0.00 46 974.7
20260506211358 52 203 6.0 7.0 0.00 0.00 0.00 47 974.5
20260506210721 53 264 9.0 7.0 0.00 0.00 0.00 45 974.8
20260506205402 53 256 6.0 5.0 0.00 0.00 0.00 45 974.7
20260506204721 53 173 4.0 0.0 0.00 0.00 0.00 45 974.6
20260506204044 53 3 5.0 0.0 0.00 0.00 0.00 46 974.6
20260506202726 53 259 4.0 0.0 0.00 0.00 0.00 45 974.7
20260506202045 53 256 8.0 6.0 0.00 0.00 0.00 44 974.7
20260506201407 54 266 2.0 0.0 0.00 0.00 0.00 44 974.8
20260506200727 54 281 2.0 5.0 0.00 0.00 0.00 45 974.8
20260506200049 53 298 1.0 5.0 0.00 0.00 0.00 45 974.9
20260506195408 54 257 5.0 5.0 0.00 0.00 0.00 44 975.1
20260506194731 54 262 9.0 9.0 0.00 0.00 0.00 44 975.2
20260506194050 53 146 1.0 2.0 0.00 0.00 0.00 47 975.1
20260506193413 52 260 2.0 3.0 0.00 0.00 0.00 48 975.1
20260506192732 52 224 2.0 3.0 0.00 0.00 0.00 47 975.2
20260506192054 52 280 6.0 9.0 0.00 0.00 0.00 46 975.0
20260506191414 52 170 1.0 0.0 0.00 0.00 0.00 46 975.2
20260506190736 52 255 2.0 3.0 0.00 0.00 0.00 47 975.3
20260506185418 52 280 6.0 4.0 0.00 0.00 0.00 47 975.3
20260506184737 51 255 5.0 3.0 0.00 0.00 0.00 48 975.2
20260506184100 51 312 6.0 7.0 0.00 0.00 0.00 48 975.3
20260506183419 51 255 6.0 7.0 0.00 0.00 0.00 49 975.1
20260506182742 51 231 3.0 3.0 0.00 0.00 0.00 49 975.2
20260506182101 51 338 5.0 6.0 0.00 0.00 0.00 49 975.3
20260506181423 51 203 2.0 0.0 0.00 0.00 0.00 50 975.3
20260506180742 51 238 7.0 9.0 0.00 0.00 0.00 49 975.5
20260506180105 51 252 5.0 0.0 0.00 0.00 0.00 49 975.4
20260506175424 51 323 2.0 0.0 0.00 0.00 0.00 50 975.4
20260506174747 51 264 4.0 6.0 0.00 0.00 0.00 50 975.4
20260506174153 51 231 0.0 0.0 0.00 0.00 0.00 51 975.6
20260506174106 51 231 0.0 0.0 0.00 0.00 0.00 51 975.6
20260506173526 50 288 3.0 3.0 0.00 0.00 0.00 52 975.6
20260506173429 50 288 3.0 3.0 0.00 0.00 0.00 52 975.6
20260506172927 50 240 6.0 4.0 0.00 0.00 0.00 52 975.7
20260506172748 50 240 6.0 4.0 0.00 0.00 0.00 52 975.7
20260506172110 50 236 4.0 0.0 0.00 0.00 0.00 53 975.7
20260506171430 50 194 4.0 3.0 0.00 0.00 0.00 54 975.8
20260506170752 50 309 3.0 4.0 0.00 0.00 0.00 54 975.8
20260506170111 50 329 2.0 0.0 0.00 0.00 0.00 54 975.9
20260506165434 50 217 0.0 0.0 0.00 0.00 0.00 54 975.8
20260506164753 49 328 2.0 0.0 0.00 0.00 0.00 54 975.8
20260506164116 49 238 5.0 5.0 0.00 0.00 0.00 56 975.8
20260506163435 49 195 2.0 0.0 0.00 0.00 0.00 55 975.8
20260506162758 49 290 4.0 7.0 0.00 0.00 0.00 55 975.8
20260506162117 50 225 3.0 0.0 0.00 0.00 0.00 54 975.7
20260506161439 50 312 4.0 0.0 0.00 0.00 0.00 53 975.8
20260506160758 50 281 4.0 5.0 0.00 0.00 0.00 54 975.8
20260506160618 50 285 5.0 10.0 0.00 0.00 0.00 55 975.8
20260506160214 50 285 5.0 10.0 0.00 0.00 0.00 55 975.8
20260506160121 50 285 5.0 10.0 0.00 0.00 0.00 55 975.8
20260506155440 49 180 3.0 2.0 0.00 0.00 0.00 55 975.8
20260506154844 49 187 0.0 5.0 0.00 0.00 0.00 54 975.8
20260506154803 49 187 0.0 5.0 0.00 0.00 0.00 54 975.8
20260506154122 50 248 8.0 14.0 0.00 0.00 0.00 53 975.7
20260506153445 49 269 4.0 6.0 0.00 0.00 0.00 56 975.7
20260506152804 49 253 5.0 3.0 0.00 0.00 0.00 56 975.6
20260506152127 49 280 7.0 3.0 0.00 0.00 0.00 57 975.6
20260506151446 49 243 7.0 3.0 0.00 0.00 0.00 57 975.5
20260506150808 49 148 4.0 0.0 0.00 0.00 0.00 58 975.6
20260506150128 49 166 3.0 0.0 0.00 0.00 0.00 59 975.6
20260506144809 49 159 1.0 0.0 0.00 0.00 0.00 64 975.4
20260506144132 48 176 4.0 0.0 0.00 0.00 0.00 64 975.6
20260506143451 48 153 3.0 6.0 0.00 0.00 0.00 68 975.6
20260506142814 47 162 0.0 0.0 0.00 0.00 0.00 68 975.7
20260506142133 47 165 5.0 0.0 0.00 0.00 0.00 68 975.7
20260506141456 47 158 2.0 0.0 0.00 0.00 0.00 69 975.6
20260506140815 46 184 0.0 0.0 0.00 0.00 0.00 70 975.7
20260506140137 46 110 0.0 0.0 0.00 0.00 0.00 73 975.7
20260506135553 46 110 0.0 0.0 0.00 0.00 0.00 74 975.7
20260506135457 46 110 0.0 0.0 0.00 0.00 0.00 74 975.7
20260506134902 45 110 0.0 0.0 0.00 0.00 0.00 78 975.7
20260506134819 45 110 0.0 0.0 0.00 0.00 0.00 78 975.7
20260506134355 45 24 5.0 0.0 0.00 0.00 0.00 77 975.7
20260506134138 45 24 5.0 0.0 0.00 0.00 0.00 77 975.7
20260506133501 44 60 0.0 0.0 0.00 0.00 0.00 79 975.8
20260506132902 44 84 2.0 0.0 0.00 0.00 0.00 80 975.7
20260506132820 44 84 2.0 0.0 0.00 0.00 0.00 80 975.7
20260506132231 43 56 0.0 0.0 0.00 0.00 0.00 82 975.8
20260506132143 43 56 0.0 0.0 0.00 0.00 0.00 82 975.8
20260506131631 43 48 0.0 5.0 0.00 0.00 0.00 84 975.9
20260506131502 43 48 0.0 5.0 0.00 0.00 0.00 84 975.9
20260506130825 43 13 4.0 5.0 0.00 0.00 0.00 85 976.1
20260506130144 42 90 1.0 6.0 0.00 0.00 0.00 87 976.1
20260506125606 42 80 3.0 7.0 0.00 0.00 0.00 87 976.1
20260506125506 42 80 3.0 7.0 0.00 0.00 0.00 87 976.1
20260506124906 41 107 5.0 0.0 0.00 0.00 0.00 89 976.2
20260506124825 41 107 5.0 0.0 0.00 0.00 0.00 89 976.2
20260506124148 41 48 5.0 0.0 0.00 0.00 0.00 91 976.1
20260506123507 40 53 4.0 0.0 0.00 0.00 0.00 91 976.3
20260506122312 39 14 0.0 0.0 0.00 0.00 0.00 93 976.2
20260506122149 39 14 0.0 0.0 0.00 0.00 0.00 93 976.2
20260506121511 39 14 0.0 0.0 0.00 0.00 0.00 94 976.3
20260506120910 38 14 0.0 0.0 0.00 0.00 0.00 95 976.4
20260506120831 38 14 0.0 0.0 0.00 0.00 0.00 95 976.4
20260506120230 37 14 0.0 0.0 0.00 0.00 0.00 96 976.3
20260506120153 37 14 0.0 0.0 0.00 0.00 0.00 96 976.3
20260506115512 36 14 0.0 0.0 0.00 0.00 0.00 97 976.2
20260506114835 36 15 0.0 0.0 0.00 0.00 0.00 98 976.1
20260506114241 35 15 0.0 0.0 0.00 0.00 0.00 99 976.0
20260506114154 35 15 0.0 0.0 0.00 0.00 0.00 99 976.0
20260506113731 34 15 0.0 0.0 0.00 0.00 0.00 99 976.0
20260506113517 34 15 0.0 0.0 0.00 0.00 0.00 99 976.0
20260506112158 34 13 5.0 4.0 0.00 0.00 0.00 100 975.9
20260506111517 33 24 4.0 3.0 0.00 0.00 0.00 100 976.0
20260506110840 33 4 3.0 4.0 0.00 0.00 0.00 100 975.8
20260506110159 33 25 5.0 5.0 0.00 0.00 0.00 99 975.8
20260506105521 33 20 4.0 5.0 0.00 0.00 0.00 99 975.8
20260506104840 34 11 4.0 5.0 0.00 0.00 0.00 99 975.8
20260506104357 34 347 4.0 5.0 0.00 0.00 0.00 99 975.9
20260506104203 34 347 4.0 5.0 0.00 0.00 0.00 99 975.9
20260506103709 34 335 3.0 2.0 0.00 0.00 0.00 99 975.8
20260506103522 34 335 3.0 2.0 0.00 0.00 0.00 99 975.8
20260506102845 34 353 4.0 5.0 0.00 0.00 0.00 98 976.0
20260506102355 34 359 7.0 5.0 0.00 0.00 0.00 98 975.8
20260506102204 34 359 7.0 5.0 0.00 0.00 0.00 98 975.8
20260506101714 34 356 7.0 7.0 0.00 0.00 0.00 98 975.7
20260506101526 34 356 7.0 7.0 0.00 0.00 0.00 98 975.7
20260506100845 34 347 4.0 5.0 0.00 0.00 0.00 98 975.8
20260506100359 34 328 4.0 3.0 0.00 0.00 0.00 97 975.8
20260506100208 34 328 4.0 3.0 0.00 0.00 0.00 97 975.8
20260506095527 34 349 4.0 6.0 0.00 0.00 0.00 97 975.7
20260506094849 35 6 1.0 0.0 0.00 0.00 0.00 96 975.6
20260506094208 35 316 3.0 5.0 0.00 0.00 0.00 95 975.5
20260506093531 35 346 4.0 3.0 0.00 0.00 0.00 95 975.5
20260506092850 35 332 2.0 5.0 0.00 0.00 0.00 95 975.3
20260506092213 35 345 4.0 4.0 0.00 0.00 0.00 95 975.3
20260506091532 35 347 0.0 0.0 0.00 0.00 0.00 94 975.1
20260506090854 35 353 4.0 3.0 0.00 0.00 0.00 94 974.9
20260506090213 35 308 0.0 0.0 0.00 0.00 0.00 94 974.8
20260506085536 35 308 0.0 0.0 0.00 0.00 0.00 93 974.7
20260506084855 36 343 4.0 4.0 0.00 0.00 0.00 93 974.7
20260506083536 36 338 0.0 6.0 0.00 0.00 0.00 92 974.7
20260506082859 36 329 0.0 0.0 0.00 0.00 0.00 93 974.8
20260506082218 35 333 0.0 5.0 0.00 0.00 0.00 92 974.8
20260506081540 35 309 2.0 0.0 0.00 0.00 0.00 92 974.9
20260506080859 36 267 0.0 0.0 0.00 0.00 0.00 91 974.8
20260506080222 36 267 0.0 0.0 0.00 0.00 0.00 91 974.8
20260506072904 36 267 0.0 0.0 0.00 0.00 0.00 91 974.6
20260506072426 35 267 0.0 0.0 0.00 0.00 0.00 91 974.5
20260506072227 35 267 0.0 0.0 0.00 0.00 0.00 91 974.5
20260506070908 36 267 0.0 0.0 0.00 0.00 0.00 90 974.5
20260506070227 36 267 0.0 0.0 0.00 0.00 0.00 89 974.5
20260506062232 38 267 0.0 0.0 0.00 0.00 0.00 87 974.5
20260506061554 38 267 0.0 0.0 0.00 0.00 0.00 87 974.4
20260506060913 38 267 0.0 0.0 0.00 0.00 0.00 86 974.6
20260506060236 38 267 0.0 0.0 0.00 0.00 0.00 86 974.6
20260506050922 39 267 0.0 0.0 0.00 0.00 0.00 79 974.7
20260506050241 40 267 0.0 0.0 0.00 0.00 0.00 78 974.3
20260506044922 40 267 0.0 0.0 0.00 0.00 0.00 78 974.2
20260506044245 40 267 0.0 0.0 0.00 0.00 0.00 76 974.2
20260506043604 41 267 0.0 0.0 0.00 0.00 0.00 74 974.2
20260506042926 41 267 0.0 0.0 0.00 0.00 0.00 73 974.3
20260506042245 41 267 0.0 0.0 0.00 0.00 0.00 72 974.4
20260506041608 41 267 0.0 0.0 0.00 0.00 0.00 72 974.3
20260506040927 41 267 0.0 0.0 0.00 0.00 0.00 72 974.2
20260506040249 42 267 0.0 0.0 0.00 0.00 0.00 72 974.2
20260506035608 42 267 0.0 0.0 0.00 0.02 0.00 71 974.1
20260506034931 42 267 0.0 0.0 0.00 0.02 0.00 69 974.1
20260506034250 43 267 0.0 0.0 0.00 0.02 0.00 67 974.1
20260506033612 43 267 0.0 0.0 0.00 0.02 0.00 66 974.3
20260506032254 44 267 0.0 0.0 0.00 0.02 0.00 64 974.2
20260506031613 44 267 0.0 0.0 0.00 0.02 0.00 63 974.1
20260506030935 45 267 0.0 0.0 0.00 0.02 0.00 62 974.1
20260506030255 45 267 0.0 0.0 0.00 0.02 0.00 62 974.0
20260506025617 46 267 0.0 0.0 0.00 0.02 0.00 60 973.9
20260506024936 46 267 0.0 0.0 0.00 0.02 0.00 59 973.9
20260506024259 46 267 0.0 0.0 0.00 0.02 0.00 59 973.8
20260506023618 47 267 0.0 0.0 0.00 0.02 0.00 58 973.6
20260506022259 47 267 0.0 0.0 0.00 0.02 0.00 57 973.3
20260506021622 47 267 0.0 0.0 0.00 0.02 0.00 57 973.4
20260506020941 47 267 0.0 0.0 0.00 0.02 0.00 57 973.3
20260506020303 47 267 0.0 0.0 0.00 0.02 0.00 56 973.2
20260506014945 48 267 0.0 0.0 0.00 0.02 0.00 55 973.1
20260506014304 48 290 0.0 0.0 0.00 0.02 0.00 54 973.1
20260506012945 48 287 0.0 0.0 0.00 0.02 0.00 53 972.8
20260506012308 49 287 0.0 0.0 0.00 0.02 0.00 52 972.6
20260506011627 49 281 1.0 0.0 0.00 0.02 0.00 52 972.6
20260506010950 49 280 1.0 0.0 0.00 0.02 0.00 52 972.5
20260506010309 49 290 0.0 0.0 0.00 0.02 0.00 51 972.5
20260506005631 49 322 1.0 0.0 0.00 0.02 0.00 51 972.3
20260506004950 50 315 1.0 6.0 0.00 0.02 0.00 50 972.2
20260506003632 50 281 4.0 0.0 0.00 0.02 0.00 48 972.1
20260506002954 50 281 0.0 0.0 0.00 0.02 0.00 48 972.0
20260506002313 51 316 4.0 3.0 0.00 0.02 0.00 47 972.0
20260506001636 51 277 1.0 6.0 0.00 0.02 0.00 47 971.9
20260506000955 51 242 2.0 0.0 0.00 0.02 0.00 46 971.8
20260506000318 51 305 2.0 4.0 0.00 0.02 0.00 46 971.6
20260505235637 52 284 5.0 0.0 0.00 0.02 0.00 46 971.6
20260505234959 52 302 3.0 5.0 0.00 0.02 0.00 46 971.5
20260505234318 52 301 6.0 4.0 0.00 0.02 0.00 47 971.4
20260505233641 53 307 3.0 0.0 0.00 0.02 0.00 47 971.3
20260505233000 53 316 3.0 0.0 0.00 0.02 0.00 47 971.3
20260505232323 53 301 1.0 5.0 0.00 0.02 0.00 47 971.1
20260505231642 53 267 0.0 3.0 0.00 0.02 0.00 47 971.1